"Pseudo-MPEC" for C07DCT2

Created 2019 Feb 15 23:18:06 UT using Find_Orb

Click here for an explanation of pseudo-MPECs

 
 Astrometry: 
     C07DCT2  C2019 02 04%YX[WpAstrometry/bA;K@]^oZh06F(B7H,rA^W/dkBEHvoX^kM0F52
     C07DCT2  C2019 02 04k4\M0sPqlKUI5?nW=ShO8YHj@pK`pRCCcpsZby5f4/Zk'QDo6((8F52
     C07DCT2  C2019 02 04nslk\?%+ER:Ywv1uk72NtJGvredacted;3y=6G6\8LxWBWOM'B6XF52
     C07DCT2  C2019 02 0472j8cW7Zm^JOQvN.r+8EbsAxR_y,#7L:$SgNDGA]KK4GSvs84.:RF52
     C07DCT2  C2019 02 12.32422 10 16 09.79 +04 13 09.1    ~2C8m 21.4 GVNEOCPG96
     C07DCT2  C2019 02 12.32710 10 16 09.56 +04 13 13.5    ~2C8m 22.0 GVNEOCPG96
     C07DCT2  C2019 02 12.32997 10 16 09.36 +04 13 16.6    ~2C8m 21.7 GVNEOCPG96
     C07DCT2  C2019 02 12rqGh$hHi8_:cs;p4T^,/lFa,TmR06$[7m9YcH!!uW4EEi)QRvRm(V06
     C07DCT2  C2019 02 12RA`EJa%cD8OX]t!fL-Xclick!ydo4ZMfu42v^MR=6q;(NeuO,!7YV06
     C07DCT2  C2019 02 12acx]wd357e,(6H0kvPf%6g8.:wJOT1l,HCp52bU?jkgT\c^BtC_3V06
     C07DCT2  C2019 02 12O]#5_F,uYHPx8u?F2\+4$YX=lUeMP6*%Mahere:3-.@H^:Y7;ksFV06
     C07DCT2  C2019 02 12GZywK]VxDKe,KsLN1EBE\]jV)J.c#i8BocL;$w'0T7*f\M10!Nn\V06
     C07DCT2  C2019 02 12Bdojd'Akkw((@UQ7?,e3fHD=bx1nAucw?MX`sJ^M,fm%ux:^'(K)V06
     C07DCT2  C2019 02 12OVwH^V/1Zm^@3+Eb)aAC^lLe4LjhejqvA?4w(E1O]RBw$forK9[lV06
     C07DCT2 |C2019 02 144NITrtP:nkv=#/Bv,GGy(m5!`x`h2hk@afJUZh0+W6_fY[M\Lb*b807
     C07DCT2 |C2019 02 14F$G-Dq$:4Et%_`^@gW:ZaVw+pUvUvCb@oXx/Nf.km=)h*!ED[`3k807
     C07DCT2 |C2019 02 14j93_K1HyRWCJs'l#(7QVQw'M`NJTr=g2hSZexplanationg+kC(/807

Station data:
(807) Cerro Tololo Observatory, La Serena  (S30.169136 W70.805900)  Chile.
   1.5-m Ritchey-Chrétien.
(F52) Pan-STARRS 2, Haleakala  (N20.707384 W156.255910)  US/Hawaii.
(G96) Mt. Lemmon Survey  (N32.442754 W110.788720)  US/Arizona.  Observers B.
   M. Africano, E. J. Christensen, G. A. Farneth, D. C. Fuls, A. R. Gibbs, A.
   D. Grauer, H. Groeller, J. A. Johnson, R. A. Kowalski, S. M. Larson, G. J.
   Leonard, R. L. Seaman, F. C. Shelly. 1.5-m reflector + 10K CCD.
(V06) Catalina Sky Survey-Kuiper  (N32.416847 W110.732550)  US/Arizona.
   Observers B. M. Africano, E. J. Christensen, G. A. Farneth, D. C. Fuls, A.
   R. Gibbs, A. D. Grauer, H. Groeller, J. A. Johnson, R. A. Kowalski, S. M.
   Larson, G. J. Leonard, R. L. Seaman, F. C. Shelly. 1.55-m reflector + CCD.

Orbital elements:  C07DCT2
   Perihelion 2018 Feb 1.259154 +/- 61.3 TT =  6:13:10 (JD 2458150.759154)
Epoch 2019 Feb 14.0 TT = JDT 2458528.5   Earth MOID: 0.8277   AutoNEOCP
M 137.80352529 +/- 20               (J2000 ecliptic)
n   0.36480970 +/- 0.00648          Peri.  210.60236 +/- 17
a   1.93980673 +/- 0.023            Node   156.06014 +/- 0.25
e   0.0591965 +/- 0.00691           Incl.   23.83963 +/- 1.5
P   2.70/986.80d           H 20.1   G  0.15   U  9.4  
q 1.82497680 +/- 0.0346    Q 2.05463667 +/- 0.011
From 17 observations 2019 Feb. 4-14; mean residual 0".33
Residuals in arcseconds: 
190204 F52  .13-  .04+    190212 G96  .59-  .04-    190212 V06  .23-  .03-    
190204 F52  .07+  .28+    190212 V06  .69+  .60-    190212 V06  .24+  .15-    
190204 F52  .25-  .50-    190212 V06  .18-  .57+    190214 807  .04+  .01-    
190204 F52  .33+  .18+    190212 V06  .15+  .36-    190214 807  .02-  .08-    
190212 G96  .72+  .26-    190212 V06  .58-  .18-    190214 807  .01+  .11+    
190212 G96  .15-  .49+    190212 V06  .11-  .41+    

Ephemerides (geocentric):
Date (UTC) HH   RA              Dec         delta   r     elong  mag " sig PA
---- -- -- --  -------------   -----------  ------ ------ -----  --- ---- ---
2019 02 15 23  10 12 39.365   +05 31 18.35  1.0461 2.0286 171.8 22.1 1.33  37
2019 02 16 00  10 12 36.910   +05 32 12.91  1.0460 2.0286 171.8 22.1 1.36  36
2019 02 16 01  10 12 34.454   +05 33 07.48  1.0460 2.0287 171.9 22.1 1.39  35
2019 02 16 02  10 12 31.998   +05 34 02.07  1.0459 2.0287 171.9 22.1 1.42  34
2019 02 16 03  10 12 29.540   +05 34 56.67  1.0459 2.0287 172.0 22.1 1.44  32
2019 02 16 04  10 12 27.082   +05 35 51.29  1.0458 2.0287 172.0 22.1 1.47  31
2019 02 16 05  10 12 24.623   +05 36 45.92  1.0458 2.0287 172.1 22.1 1.50  30
2019 02 16 06  10 12 22.163   +05 37 40.57  1.0457 2.0288 172.1 22.1 1.54  29
2019 02 16 07  10 12 19.703   +05 38 35.24  1.0457 2.0288 172.2 22.1 1.57  28
2019 02 16 08  10 12 17.242   +05 39 29.92  1.0456 2.0288 172.2 22.1 1.60  27
2019 02 16 09  10 12 14.780   +05 40 24.61  1.0456 2.0288 172.3 22.1 1.63  26
2019 02 16 10  10 12 12.317   +05 41 19.32  1.0455 2.0288 172.3 22.1 1.67  25
2019 02 16 11  10 12 09.854   +05 42 14.05  1.0455 2.0288 172.4 22.1 1.70  25
2019 02 16 12  10 12 07.390   +05 43 08.79  1.0454 2.0289 172.4 22.1 1.74  24
2019 02 16 13  10 12 04.925   +05 44 03.55  1.0454 2.0289 172.5 22.1 1.77  23
2019 02 16 14  10 12 02.460   +05 44 58.32  1.0453 2.0289 172.5 22.1 1.81  22
2019 02 16 15  10 11 59.994   +05 45 53.10  1.0453 2.0289 172.6 22.1 1.85  21
2019 02 16 16  10 11 57.527   +05 46 47.90  1.0452 2.0289 172.6 22.1 1.89  20
2019 02 16 17  10 11 55.059   +05 47 42.72  1.0452 2.0290 172.7 22.1 1.93  19
2019 02 16 18  10 11 52.591   +05 48 37.55  1.0452 2.0290 172.7 22.1 1.97  18
2019 02 16 19  10 11 50.123   +05 49 32.39  1.0451 2.0290 172.8 22.1 2.01  18
2019 02 16 20  10 11 47.653   +05 50 27.25  1.0451 2.0290 172.8 22.1 2.05  17
2019 02 16 21  10 11 45.183   +05 51 22.12  1.0450 2.0290 172.9 22.1 2.09  16
2019 02 16 22  10 11 42.712   +05 52 17.01  1.0450 2.0290 172.9 22.1 2.14  15
2019 02 16 23  10 11 40.241   +05 53 11.91  1.0449 2.0291 173.0 22.1 2.18  15
2019 02 17 00  10 11 37.769   +05 54 06.82  1.0449 2.0291 173.0 22.1 2.23  14
2019 02 17 01  10 11 35.296   +05 55 01.75  1.0449 2.0291 173.1 22.1 2.27  13
2019 02 17 02  10 11 32.823   +05 55 56.69  1.0448 2.0291 173.1 22.1 2.32  12
2019 02 17 03  10 11 30.349   +05 56 51.64  1.0448 2.0291 173.2 22.1 2.37  12
2019 02 17 04  10 11 27.875   +05 57 46.61  1.0447 2.0292 173.2 22.1 2.42  11
2019 02 17 05  10 11 25.400   +05 58 41.59  1.0447 2.0292 173.3 22.1 2.47  10
2019 02 17 06  10 11 22.924   +05 59 36.59  1.0447 2.0292 173.3 22.1 2.52  10
2019 02 17 07  10 11 20.448   +06 00 31.59  1.0446 2.0292 173.3 22.1 2.57   9
2019 02 17 08  10 11 17.971   +06 01 26.61  1.0446 2.0292 173.4 22.1 2.62   8
2019 02 17 09  10 11 15.494   +06 02 21.65  1.0445 2.0292 173.4 22.1 2.67   8
2019 02 17 10  10 11 13.016   +06 03 16.69  1.0445 2.0293 173.5 22.1 2.73   7
2019 02 17 11  10 11 10.538   +06 04 11.75  1.0445 2.0293 173.5 22.1 2.78   7
2019 02 17 12  10 11 08.059   +06 05 06.82  1.0444 2.0293 173.6 22.1 2.84   6
2019 02 17 13  10 11 05.579   +06 06 01.91  1.0444 2.0293 173.6 22.1 2.89   5
2019 02 17 14  10 11 03.099   +06 06 57.00  1.0444 2.0293 173.7 22.1 2.95   5
2019 02 17 15  10 11 00.619   +06 07 52.11  1.0443 2.0294 173.7 22.1 3.01   4
2019 02 17 16  10 10 58.138   +06 08 47.23  1.0443 2.0294 173.8 22.1 3.07   4
2019 02 17 17  10 10 55.656   +06 09 42.36  1.0443 2.0294 173.8 22.1 3.13   3
2019 02 17 18  10 10 53.174   +06 10 37.51  1.0442 2.0294 173.8 22.1 3.19   3
2019 02 17 19  10 10 50.691   +06 11 32.66  1.0442 2.0294 173.9 22.1 3.25   2
2019 02 17 20  10 10 48.208   +06 12 27.83  1.0442 2.0294 173.9 22.1 3.31   2
2019 02 17 21  10 10 45.725   +06 13 23.01  1.0441 2.0295 174.0 22.1 3.37   1
2019 02 17 22  10 10 43.241   +06 14 18.20  1.0441 2.0295 174.0 22.1 3.44   1